Back to catalog

DELTA 1 R/B

AliveHEO
NORAD 515·ROCKET BODY·🇺🇸 United States

Launched Dec 13, 1962 from Cape Canaveral Space Force Station

Loading…

Next Passes (next 24 hours)

TLE

FreshSource: Space-Track

Epoch: Sep 11, 2026, 00:21 UTC

1 00515U 62068B   26254.01471663 -.00000028  00000-0  00000-0 0  9991
2 00515  47.4944 247.8743 2830347  23.2609 347.4180  7.79274459814542

Track DELTA 1 R/B in real time with AllMySat

Download on the App Store